Retour au catalogue

FENGYUN 1C DEB

ActifSSO
NORAD 31524·DEBRIS·🇨🇳 China

Lancé May 10, 1999 depuis Taiyuan Satellite Launch Center

Loading…

Prochains Passages (prochaines 24 heures)

TLE

VieillissantSource: Space-Track

Époque: Sep 5, 2026, 12:54 UTC

1 31524U 99025BXP 26248.53752581  .00000281  00000-0  13687-3 0  9997
2 31524  99.2475 141.3013 0277765 101.5145  18.5831 14.07616001669044

Suivez FENGYUN 1C DEB en temps réel avec AllMySat

Download on the App Store